Time,TemperatureF,DewpointF,PressureIn,WindDirection,WindDirectionDegrees,WindSpeedMPH,WindSpeedGustMPH,Humidity,HourlyPrecipIn,Conditions,Clouds,dailyrainin,SoftwareType,DateUTC
2013-02-07 00:02:00,15.0,12.0,-100.00,ENE,75,8.0,12.0,89,-99.99,,,-99.99,,2013-02-07 05:02:00,
2013-02-07 00:12:00,15.0,12.0,-100.00,ENE,75,8.0,12.0,89,-99.99,,,-99.99,,2013-02-07 05:12:00,
2013-02-07 00:21:00,15.0,12.0,-100.00,East,80,9.0,11.0,89,-99.99,,,-99.99,,2013-02-07 05:21:00,
2013-02-07 00:32:00,15.0,12.0,-100.00,East,80,9.0,13.0,89,-99.99,,,-99.99,,2013-02-07 05:32:00,
2013-02-07 00:42:00,15.0,12.0,-100.00,East,80,9.0,13.0,89,-99.99,,,-99.99,,2013-02-07 05:42:00,
2013-02-07 00:52:00,15.0,12.0,-100.00,East,85,8.0,11.0,89,-99.99,,,-99.99,,2013-02-07 05:52:00,
2013-02-07 01:02:00,15.0,12.0,-100.00,ENE,65,8.0,10.0,89,-99.99,,,-99.99,,2013-02-07 06:02:00,
2013-02-07 01:11:00,15.0,12.0,-100.00,ENE,65,8.0,10.0,89,-99.99,,,-99.99,,2013-02-07 06:11:00,
2013-02-07 01:22:00,15.0,12.0,-100.00,ENE,70,9.0,11.0,89,-99.99,,,-99.99,,2013-02-07 06:22:00,
2013-02-07 01:32:00,15.0,12.0,-100.00,East,85,11.0,12.0,89,-99.99,,,-99.99,,2013-02-07 06:32:00,
2013-02-07 01:43:00,15.0,12.0,-100.00,East,85,11.0,12.0,89,-99.99,,,-99.99,,2013-02-07 06:43:00,
2013-02-07 01:52:00,15.0,12.0,-100.00,East,80,10.0,12.0,89,-99.99,,,-99.99,,2013-02-07 06:52:00,
2013-02-07 02:02:00,15.0,13.0,-100.00,East,85,9.0,11.0,89,-99.99,,,-99.99,,2013-02-07 07:02:00,
2013-02-07 02:11:00,15.0,13.0,-100.00,East,85,9.0,11.0,89,-99.99,,,-99.99,,2013-02-07 07:11:00,
2013-02-07 02:22:00,15.0,13.0,-100.00,East,85,9.0,12.0,89,-99.99,,,-99.99,,2013-02-07 07:22:00,
2013-02-07 02:32:00,15.0,13.0,-100.00,East,80,9.0,11.0,90,-99.99,,,-99.99,,2013-02-07 07:32:00,
2013-02-07 02:42:00,15.0,13.0,-100.00,East,80,9.0,11.0,90,-99.99,,,-99.99,,2013-02-07 07:42:00,
2013-02-07 02:52:00,16.0,13.0,-100.00,East,80,10.0,12.0,90,-99.99,,,-99.99,,2013-02-07 07:52:00,
2013-02-07 03:02:00,16.0,13.0,-100.00,East,80,10.0,12.0,90,-99.99,,,-99.99,,2013-02-07 08:02:00,
2013-02-07 03:11:00,16.0,13.0,-100.00,East,80,10.0,12.0,90,-99.99,,,-99.99,,2013-02-07 08:11:00,
2013-02-07 03:22:00,16.0,13.0,-100.00,East,80,10.0,12.0,89,-99.99,,,-99.99,,2013-02-07 08:22:00,
2013-02-07 03:32:00,16.0,13.0,-100.00,East,90,11.0,14.0,89,-99.99,,,-99.99,,2013-02-07 08:32:00,
2013-02-07 03:42:00,16.0,13.0,-100.00,East,90,11.0,14.0,89,-99.99,,,-99.99,,2013-02-07 08:42:00,
2013-02-07 03:52:00,16.0,14.0,-100.00,East,85,10.0,14.0,90,-99.99,,,-99.99,,2013-02-07 08:52:00,
2013-02-07 04:02:00,16.0,14.0,-100.00,East,85,10.0,14.0,90,-99.99,,,-99.99,,2013-02-07 09:02:00,
2013-02-07 04:11:00,16.0,14.0,-100.00,East,85,10.0,14.0,90,-99.99,,,-99.99,,2013-02-07 09:11:00,
2013-02-07 04:22:00,16.0,14.0,-100.00,East,80,11.0,14.0,90,-99.99,,,-99.99,,2013-02-07 09:22:00,
2013-02-07 04:32:00,17.0,14.0,-100.00,East,90,14.0,16.0,90,-99.99,,,-99.99,,2013-02-07 09:32:00,
2013-02-07 04:42:00,17.0,14.0,-100.00,East,90,14.0,16.0,90,-99.99,,,-99.99,,2013-02-07 09:42:00,
2013-02-07 04:52:00,17.0,14.0,-100.00,East,80,9.0,15.0,90,-99.99,,,-99.99,,2013-02-07 09:52:00,
2013-02-07 05:02:00,17.0,14.0,-100.00,East,80,9.0,15.0,90,-99.99,,,-99.99,,2013-02-07 10:02:00,
2013-02-07 05:11:00,17.0,14.0,-100.00,East,80,9.0,15.0,90,-99.99,,,-99.99,,2013-02-07 10:11:00,
2013-02-07 05:22:00,17.0,14.0,-100.00,East,85,11.0,16.0,90,-99.99,,,-99.99,,2013-02-07 10:22:00,
2013-02-07 05:32:00,17.0,14.0,-100.00,East,95,15.0,18.0,90,-99.99,,,-99.99,,2013-02-07 10:32:00,
2013-02-07 05:42:00,17.0,14.0,-100.00,East,95,15.0,18.0,90,-99.99,,,-99.99,,2013-02-07 10:42:00,
2013-02-07 05:52:00,17.0,14.0,-100.00,East,95,19.0,21.0,90,-99.99,,,-99.99,,2013-02-07 10:52:00,
2013-02-07 06:02:00,17.0,14.0,-100.00,East,90,18.0,21.0,89,-99.99,,,-99.99,,2013-02-07 11:02:00,
2013-02-07 06:11:00,17.0,14.0,-100.00,East,90,18.0,21.0,89,-99.99,,,-99.99,,2013-02-07 11:11:00,
2013-02-07 06:23:00,17.0,14.0,-100.00,East,85,15.0,21.0,89,-99.99,,,-99.99,,2013-02-07 11:23:00,
2013-02-07 06:32:00,17.0,14.0,-100.00,East,85,17.0,24.0,89,-99.99,,,-99.99,,2013-02-07 11:32:00,
2013-02-07 06:44:00,17.0,14.0,-100.00,East,85,17.0,24.0,89,-99.99,,,-99.99,,2013-02-07 11:44:00,
2013-02-07 06:52:00,17.0,14.0,-100.00,East,90,18.0,24.0,89,-99.99,,,-99.99,,2013-02-07 11:52:00,
2013-02-07 07:02:00,17.0,14.0,-100.00,East,85,13.0,23.0,88,-99.99,,,-99.99,,2013-02-07 12:02:00,
2013-02-07 07:12:00,17.0,14.0,-100.00,East,85,13.0,23.0,88,-99.99,,,-99.99,,2013-02-07 12:12:00,
2013-02-07 07:22:00,16.0,13.0,-100.00,East,80,15.0,19.0,88,-99.99,,,-99.99,,2013-02-07 12:22:00,
2013-02-07 07:33:00,16.0,13.0,-100.00,East,85,14.0,19.0,88,-99.99,,,-99.99,,2013-02-07 12:33:00,
2013-02-07 07:42:00,16.0,13.0,-100.00,East,85,14.0,19.0,88,-99.99,,,-99.99,,2013-02-07 12:42:00,
2013-02-07 07:53:00,16.0,13.0,-100.00,East,85,17.0,21.0,88,-99.99,,,-99.99,,2013-02-07 12:53:00,
2013-02-07 08:03:00,16.0,13.0,-100.00,East,90,16.0,21.0,88,-99.99,,,-99.99,,2013-02-07 13:03:00,
2013-02-07 08:12:00,16.0,13.0,-100.00,East,90,16.0,21.0,88,-99.99,,,-99.99,,2013-02-07 13:12:00,
2013-02-07 08:22:00,16.0,13.0,-100.00,East,90,18.0,24.0,87,-99.99,,,-99.99,,2013-02-07 13:22:00,
2013-02-07 08:32:00,16.0,13.0,-100.00,East,90,15.0,25.0,87,-99.99,,,-99.99,,2013-02-07 13:32:00,
2013-02-07 08:42:00,16.0,13.0,-100.00,East,90,15.0,25.0,87,-99.99,,,-99.99,,2013-02-07 13:42:00,
2013-02-07 08:52:00,16.0,12.0,-100.00,East,85,16.0,24.0,86,-99.99,,,-99.99,,2013-02-07 13:52:00,
2013-02-07 09:02:00,16.0,12.0,-100.00,East,80,16.0,21.0,86,-99.99,,,-99.99,,2013-02-07 14:02:00,
2013-02-07 09:12:00,16.0,12.0,-100.00,East,80,16.0,21.0,86,-99.99,,,-99.99,,2013-02-07 14:12:00,
2013-02-07 09:22:00,16.0,12.0,-100.00,East,90,19.0,24.0,86,-99.99,,,-99.99,,2013-02-07 14:22:00,
2013-02-07 09:32:00,16.0,12.0,-100.00,East,80,16.0,23.0,86,-99.99,,,-99.99,,2013-02-07 14:32:00,
2013-02-07 09:42:00,16.0,12.0,-100.00,East,80,16.0,23.0,86,-99.99,,,-99.99,,2013-02-07 14:42:00,
2013-02-07 09:52:00,16.0,12.0,-100.00,East,85,14.0,18.0,86,-99.99,,,-99.99,,2013-02-07 14:52:00,
2013-02-07 10:02:00,16.0,12.0,-100.00,East,85,14.0,18.0,86,-99.99,,,-99.99,,2013-02-07 15:02:00,
2013-02-07 10:22:00,16.0,12.0,-100.00,East,80,14.0,18.0,87,-99.99,,,-99.99,,2013-02-07 15:22:00,
2013-02-07 10:32:00,15.0,12.0,-100.00,East,80,16.0,19.0,86,-99.99,,,-99.99,,2013-02-07 15:32:00,
2013-02-07 10:42:00,15.0,12.0,-100.00,East,80,16.0,19.0,86,-99.99,,,-99.99,,2013-02-07 15:42:00,
2013-02-07 10:52:00,15.0,12.0,-100.00,East,80,14.0,19.0,85,-99.99,,,-99.99,,2013-02-07 15:52:00,
2013-02-07 11:01:00,16.0,12.0,-100.00,East,80,17.0,25.0,85,-99.99,,,-99.99,,2013-02-07 16:01:00,
2013-02-07 11:11:00,16.0,12.0,-100.00,East,80,17.0,25.0,85,-99.99,,,-99.99,,2013-02-07 16:11:00,
2013-02-07 11:22:00,16.0,12.0,-100.00,East,90,17.0,21.0,84,-99.99,,,-99.99,,2013-02-07 16:22:00,
2013-02-07 11:32:00,16.0,12.0,-100.00,East,85,17.0,21.0,83,-99.99,,,-99.99,,2013-02-07 16:32:00,
2013-02-07 11:42:00,16.0,12.0,-100.00,East,85,17.0,21.0,83,-99.99,,,-99.99,,2013-02-07 16:42:00,
2013-02-07 11:52:00,17.0,12.0,-100.00,East,85,14.0,21.0,83,-99.99,,,-99.99,,2013-02-07 16:52:00,
2013-02-07 12:01:00,17.0,12.0,-100.00,East,85,14.0,21.0,83,-99.99,,,-99.99,,2013-02-07 17:01:00,
2013-02-07 12:11:00,17.0,12.0,-100.00,East,85,14.0,21.0,83,-99.99,,,-99.99,,2013-02-07 17:11:00,
2013-02-07 12:22:00,16.0,12.0,-100.00,ENE,70,16.0,20.0,83,-99.99,,,-99.99,,2013-02-07 17:22:00,
2013-02-07 12:32:00,16.0,12.0,-100.00,ENE,75,17.0,20.0,83,-99.99,,,-99.99,,2013-02-07 17:32:00,
2013-02-07 12:43:00,16.0,12.0,-100.00,ENE,75,17.0,20.0,83,-99.99,,,-99.99,,2013-02-07 17:43:00,
2013-02-07 12:52:00,17.0,12.0,-100.00,East,85,17.0,20.0,82,-99.99,,,-99.99,,2013-02-07 17:52:00,
2013-02-07 13:02:00,17.0,12.0,-100.00,East,85,17.0,20.0,82,-99.99,,,-99.99,,2013-02-07 18:02:00,
2013-02-07 13:12:00,17.0,12.0,-100.00,East,85,17.0,20.0,82,-99.99,,,-99.99,,2013-02-07 18:12:00,
2013-02-07 13:23:00,17.0,12.0,-100.00,East,80,15.0,20.0,82,-99.99,,,-99.99,,2013-02-07 18:23:00,
2013-02-07 13:32:00,17.0,13.0,-100.00,East,80,11.0,17.0,82,-99.99,,,-99.99,,2013-02-07 18:32:00,
2013-02-07 13:42:00,17.0,13.0,-100.00,East,80,11.0,17.0,82,-99.99,,,-99.99,,2013-02-07 18:42:00,
2013-02-07 13:52:00,18.0,13.0,-100.00,East,85,14.0,16.0,82,-99.99,,,-99.99,,2013-02-07 18:52:00,
2013-02-07 14:02:00,18.0,14.0,-100.00,East,85,14.0,18.0,82,-99.99,,,-99.99,,2013-02-07 19:02:00,
2013-02-07 14:11:00,18.0,14.0,-100.00,East,85,14.0,18.0,82,-99.99,,,-99.99,,2013-02-07 19:11:00,
2013-02-07 14:22:00,17.0,13.0,-100.00,ENE,75,13.0,19.0,82,-99.99,,,-99.99,,2013-02-07 19:22:00,
2013-02-07 14:32:00,18.0,13.0,-100.00,East,85,16.0,19.0,82,-99.99,,,-99.99,,2013-02-07 19:32:00,
2013-02-07 14:42:00,18.0,13.0,-100.00,East,85,16.0,19.0,82,-99.99,,,-99.99,,2013-02-07 19:42:00,
2013-02-07 14:52:00,18.0,13.0,-100.00,ENE,75,11.0,19.0,82,-99.99,,,-99.99,,2013-02-07 19:52:00,
2013-02-07 15:01:00,18.0,14.0,-100.00,ENE,70,14.0,16.0,83,-99.99,,,-99.99,,2013-02-07 20:01:00,
2013-02-07 15:11:00,18.0,14.0,-100.00,ENE,70,14.0,16.0,83,-99.99,,,-99.99,,2013-02-07 20:11:00,
2013-02-07 15:22:00,18.0,14.0,-100.00,ENE,75,12.0,18.0,83,-99.99,,,-99.99,,2013-02-07 20:22:00,
2013-02-07 15:32:00,18.0,14.0,-100.00,East,80,13.0,15.0,83,-99.99,,,-99.99,,2013-02-07 20:32:00,
2013-02-07 15:42:00,18.0,14.0,-100.00,East,80,13.0,15.0,83,-99.99,,,-99.99,,2013-02-07 20:42:00,
2013-02-07 15:52:00,19.0,15.0,-100.00,ENE,75,11.0,19.0,84,-99.99,,,-99.99,,2013-02-07 20:52:00,
2013-02-07 16:02:00,19.0,15.0,-100.00,ENE,75,11.0,19.0,84,-99.99,,,-99.99,,2013-02-07 21:02:00,
2013-02-07 16:11:00,19.0,15.0,-100.00,ENE,75,11.0,19.0,84,-99.99,,,-99.99,,2013-02-07 21:11:00,
2013-02-07 16:22:00,19.0,15.0,-100.00,ENE,70,11.0,16.0,85,-99.99,,,-99.99,,2013-02-07 21:22:00,
2013-02-07 16:32:00,19.0,15.0,-100.00,ENE,70,9.0,14.0,85,-99.99,,,-99.99,,2013-02-07 21:32:00,
2013-02-07 16:42:00,19.0,15.0,-100.00,ENE,70,9.0,14.0,85,-99.99,,,-99.99,,2013-02-07 21:42:00,
2013-02-07 16:52:00,19.0,16.0,-100.00,ENE,65,9.0,11.0,86,-99.99,,,-99.99,,2013-02-07 21:52:00,
2013-02-07 17:02:00,19.0,16.0,-100.00,ENE,65,10.0,15.0,86,-99.99,,,-99.99,,2013-02-07 22:02:00,
2013-02-07 17:11:00,19.0,16.0,-100.00,ENE,65,10.0,15.0,86,-99.99,,,-99.99,,2013-02-07 22:11:00,
2013-02-07 17:22:00,19.0,16.0,-100.00,ENE,60,10.0,15.0,86,-99.99,,,-99.99,,2013-02-07 22:22:00,
2013-02-07 17:32:00,20.0,16.0,-100.00,ENE,60,11.0,16.0,86,-99.99,,,-99.99,,2013-02-07 22:32:00,
2013-02-07 17:42:00,20.0,16.0,-100.00,ENE,60,11.0,16.0,86,-99.99,,,-99.99,,2013-02-07 22:42:00,
2013-02-07 17:52:00,19.0,16.0,-100.00,NE,55,11.0,14.0,86,-99.99,,,-99.99,,2013-02-07 22:52:00,
2013-02-07 18:02:00,20.0,17.0,-100.00,NE,55,11.0,14.0,87,-99.99,,,-99.99,,2013-02-07 23:02:00,
2013-02-07 18:11:00,20.0,17.0,-100.00,NE,55,11.0,14.0,87,-99.99,,,-99.99,,2013-02-07 23:11:00,
2013-02-07 18:22:00,20.0,17.0,-100.00,ENE,65,11.0,16.0,87,-99.99,,,-99.99,,2013-02-07 23:22:00,
2013-02-07 18:32:00,20.0,17.0,-100.00,ENE,60,10.0,16.0,87,-99.99,,,-99.99,,2013-02-07 23:32:00,
2013-02-07 18:42:00,20.0,17.0,-100.00,ENE,60,10.0,16.0,87,-99.99,,,-99.99,,2013-02-07 23:42:00,
2013-02-07 18:52:00,20.0,17.0,-100.00,ENE,60,9.0,15.0,87,-99.99,,,-99.99,,2013-02-07 23:52:00,
2013-02-07 19:02:00,20.0,17.0,-100.00,ENE,60,10.0,13.0,87,-99.99,,,-99.99,,2013-02-08 00:02:00,
2013-02-07 19:11:00,20.0,17.0,-100.00,ENE,60,10.0,13.0,87,-99.99,,,-99.99,,2013-02-08 00:11:00,
2013-02-07 19:22:00,21.0,17.0,-100.00,NE,45,13.0,16.0,87,-99.99,,,-99.99,,2013-02-08 00:22:00,
2013-02-07 19:32:00,21.0,17.0,-100.00,NE,50,11.0,14.0,87,-99.99,,,-99.99,,2013-02-08 00:32:00,
2013-02-07 19:42:00,21.0,17.0,-100.00,NE,50,11.0,14.0,87,-99.99,,,-99.99,,2013-02-08 00:42:00,
2013-02-07 19:52:00,21.0,18.0,-100.00,NE,55,11.0,14.0,87,-99.99,,,-99.99,,2013-02-08 00:52:00,
2013-02-07 20:02:00,21.0,18.0,-100.00,NE,50,13.0,16.0,87,-99.99,,,-99.99,,2013-02-08 01:02:00,
2013-02-07 20:11:00,21.0,18.0,-100.00,NE,50,13.0,16.0,87,-99.99,,,-99.99,,2013-02-08 01:11:00,
2013-02-07 20:21:00,21.0,18.0,-100.00,NE,50,14.0,16.0,87,-99.99,,,-99.99,,2013-02-08 01:21:00,
2013-02-07 20:32:00,21.0,18.0,-100.00,NE,50,11.0,16.0,86,-99.99,,,-99.99,,2013-02-08 01:32:00,
2013-02-07 20:42:00,21.0,18.0,-100.00,NE,50,11.0,16.0,86,-99.99,,,-99.99,,2013-02-08 01:42:00,
2013-02-07 20:51:00,22.0,18.0,-100.00,NE,55,12.0,16.0,86,-99.99,,,-99.99,,2013-02-08 01:51:00,
2013-02-07 21:01:00,22.0,18.0,-100.00,NE,55,12.0,16.0,86,-99.99,,,-99.99,,2013-02-08 02:01:00,
2013-02-07 21:11:00,22.0,18.0,-100.00,NE,55,12.0,16.0,86,-99.99,,,-99.99,,2013-02-08 02:11:00,
2013-02-07 21:22:00,22.0,18.0,-100.00,NE,55,13.0,18.0,87,-99.99,,,-99.99,,2013-02-08 02:22:00,
2013-02-07 21:32:00,22.0,18.0,-100.00,NE,50,12.0,16.0,87,-99.99,,,-99.99,,2013-02-08 02:32:00,
2013-02-07 21:42:00,22.0,18.0,-100.00,NE,50,12.0,16.0,87,-99.99,,,-99.99,,2013-02-08 02:42:00,
2013-02-07 21:52:00,21.0,18.0,-100.00,NE,40,11.0,16.0,88,-99.99,,,-99.99,,2013-02-08 02:52:00,
2013-02-07 22:02:00,21.0,18.0,-100.00,NNE,30,11.0,15.0,88,-99.99,,,-99.99,,2013-02-08 03:02:00,
2013-02-07 22:12:00,21.0,18.0,-100.00,NNE,30,11.0,15.0,88,-99.99,,,-99.99,,2013-02-08 03:12:00,
2013-02-07 22:22:00,21.0,18.0,-100.00,NE,40,11.0,15.0,89,-99.99,,,-99.99,,2013-02-08 03:22:00,
2013-02-07 22:32:00,21.0,18.0,-100.00,NE,35,11.0,14.0,90,-99.99,,,-99.99,,2013-02-08 03:32:00,
2013-02-07 22:42:00,21.0,18.0,-100.00,NE,35,11.0,14.0,90,-99.99,,,-99.99,,2013-02-08 03:42:00,
2013-02-07 22:52:00,20.0,18.0,-100.00,NE,35,11.0,14.0,91,-99.99,,,-99.99,,2013-02-08 03:52:00,
2013-02-07 23:02:00,20.0,19.0,-100.00,NE,35,11.0,14.0,92,-99.99,,,-99.99,,2013-02-08 04:02:00,
2013-02-07 23:11:00,20.0,19.0,-100.00,NE,35,11.0,14.0,92,-99.99,,,-99.99,,2013-02-08 04:11:00,
2013-02-07 23:21:00,20.0,18.0,-100.00,NE,35,12.0,14.0,92,-99.99,,,-99.99,,2013-02-08 04:21:00,
2013-02-07 23:32:00,20.0,18.0,-100.00,NE,35,11.0,14.0,92,-99.99,,,-99.99,,2013-02-08 04:32:00,
2013-02-07 23:42:00,20.0,18.0,-100.00,NE,35,11.0,14.0,92,-99.99,,,-99.99,,2013-02-08 04:42:00,
2013-02-07 23:51:00,20.0,18.0,-100.00,NE,35,11.0,14.0,91,-99.99,,,-99.99,,2013-02-08 04:51:00,